Location: Dallas(GA)
(33.9240°N, 84.8410°W)
Time: 07:58:40
(UTC-05:00)

N. Korean satellite - Visible Passes

Search period start: 26 November 2020 00:00
Search period end: 06 December 2020 00:00
Orbit: 452 x 504 km, 97.2° (Epoch: 25 November)

Date Brightness Start Highest point End Pass type
(mag) Time Alt. Az. Time Alt. Az. Time Alt. Az.
26 Nov 6.5 06:06:41 10° N 06:10:17 89° WNW 06:13:56 10° SSW visible
26 Nov 9.6 18:12:09 10° SW 18:14:39 19° W 18:17:10 10° NW visible
27 Nov 8.2 05:40:39 10° NNE 05:44:01 36° E 05:47:24 10° SSE visible
28 Nov 9.7 05:15:18 10° NE 05:17:39 16° E 05:20:00 10° SE visible
28 Nov 7.7 06:48:00 10° NNW 06:50:54 23° WNW 06:53:49 10° SW visible
29 Nov 6.7 06:21:12 10° N 06:24:44 53° WNW 06:28:18 10° SSW visible
29 Nov 10.0 18:27:47 10° WSW 18:29:10 12° W 18:30:34 10° WNW visible
30 Nov 7.1 05:54:53 10° NNE 05:58:29 61° E 06:02:06 10° S visible
30 Nov 8.9 17:59:47 10° SSW 18:02:44 28° W 18:05:44 10° NW visible
01 Dec 8.9 05:29:04 10° NE 05:32:08 25° E 05:35:13 10° SSE visible
02 Dec 10.1 05:04:26 10° ENE 05:05:42 11° E 05:06:59 10° ESE visible
02 Dec 7.3 06:35:48 10° N 06:39:05 33° WNW 06:42:24 10° SW visible
03 Dec 6.5 06:09:12 10° N 06:12:52 81° WNW 06:16:32 10° SSW visible
03 Dec 9.6 18:14:47 10° SW 18:17:09 18° W 18:19:32 10° NW visible
04 Dec 8.0 05:43:04 10° NNE 05:46:32 40° E 05:50:01 10° S visible
05 Dec 9.5 05:17:33 10° NE 05:20:08 18° E 05:22:42 10° SE visible
05 Dec 7.8 06:50:30 10° NNW 06:53:20 21° WNW 06:56:12 10° WSW visible
